TimePDT,TemperatureF,Dew PointF,Humidity,Sea Level PressureIn,VisibilityMPH,Wind Direction,Wind SpeedMPH,Gust SpeedMPH,PrecipitationIn,Events,Conditions,WindDirDegrees,DateUTC
12:58 AM,59.0,51.6,76,30.05,10.0,South,2.3,-,N/A,,Clear,190,2013-07-30 07:58:00
1:58 AM,55.0,50.7,85,30.06,10.0,South,2.3,-,N/A,,Clear,180,2013-07-30 08:58:00
2:58 AM,55.9,51.8,86,30.08,10.0,South,2.3,-,N/A,,Clear,190,2013-07-30 09:58:00
3:58 AM,52.5,49.8,91,30.09,10.0,SSW,2.3,-,N/A,,Mostly Cloudy,210,2013-07-30 10:58:00
4:58 AM,54.9,51.4,88,30.10,10.0,SSW,3.5,-,N/A,,Partly Cloudy,200,2013-07-30 11:58:00
5:58 AM,53.4,50.5,90,30.12,4.0,SW,4.6,-,N/A,,Mostly Cloudy,220,2013-07-30 12:58:00
5:59 AM,53.6,50.0,88,30.11,5.0,SW,4.6,-,N/A,,Mostly Cloudy,230,2013-07-30 12:59:00
6:09 AM,51.8,50.0,94,30.11,10.0,SW,3.5,-,N/A,,Mostly Cloudy,230,2013-07-30 13:09:00
6:29 AM,53.6,51.8,94,30.12,10.0,WSW,3.5,-,N/A,,Overcast,240,2013-07-30 13:29:00
6:58 AM,55.2,52.3,90,30.13,10.0,SW,5.8,-,N/A,,Overcast,220,2013-07-30 13:58:00
7:13 AM,55.4,51.8,88,30.13,10.0,WSW,4.6,-,N/A,,Overcast,250,2013-07-30 14:13:00
7:48 AM,57.2,51.8,82,30.14,10.0,WSW,5.8,-,N/A,,Overcast,240,2013-07-30 14:48:00
7:58 AM,56.8,52.5,85,30.15,10.0,WSW,3.5,-,N/A,,Overcast,240,2013-07-30 14:58:00
8:53 AM,57.2,53.6,88,30.15,10.0,SW,5.8,-,N/A,,Overcast,220,2013-07-30 15:53:00
8:58 AM,58.1,52.9,83,30.16,10.0,SW,4.6,-,N/A,,Overcast,220,2013-07-30 15:58:00
9:58 AM,59.5,53.2,80,30.16,10.0,Variable,4.6,-,N/A,,Overcast,0,2013-07-30 16:58:00
10:53 AM,62.6,53.6,72,30.15,10.0,SSW,5.8,-,N/A,,Overcast,200,2013-07-30 17:53:00
10:58 AM,62.4,53.8,73,30.16,10.0,Variable,3.5,-,N/A,,Overcast,0,2013-07-30 17:58:00
11:58 AM,64.8,54.3,69,30.16,10.0,Variable,3.5,-,N/A,,Overcast,0,2013-07-30 18:58:00
12:08 PM,64.4,55.4,73,30.15,10.0,West,4.6,-,N/A,,Overcast,270,2013-07-30 19:08:00
12:23 PM,66.2,55.4,68,30.15,10.0,NW,5.8,-,N/A,,Scattered Clouds,310,2013-07-30 19:23:00
12:58 PM,67.5,54.7,64,30.16,10.0,West,9.2,-,N/A,,Clear,280,2013-07-30 19:58:00
1:22 PM,68.0,55.4,64,30.14,10.0,NNW,4.6,-,N/A,,Clear,330,2013-07-30 20:22:00
1:31 PM,69.8,55.4,60,30.15,10.0,Variable,2.3,-,N/A,,Clear,0,2013-07-30 20:31:00
1:58 PM,70.0,55.2,59,30.15,10.0,West,8.1,-,0.00,,Clear,280,2013-07-30 20:58:00
2:58 PM,73.4,55.6,54,30.13,10.0,WNW,4.6,-,N/A,,Clear,290,2013-07-30 21:58:00
3:58 PM,74.8,56.5,53,30.12,10.0,WNW,5.8,-,N/A,,Clear,290,2013-07-30 22:58:00
4:58 PM,75.0,57.2,54,30.12,10.0,NW,6.9,-,N/A,,Clear,310,2013-07-30 23:58:00
5:58 PM,74.7,57.7,55,30.11,10.0,West,5.8,-,N/A,,Clear,280,2013-07-31 00:58:00
6:58 PM,72.9,58.1,60,30.11,10.0,NNW,8.1,-,N/A,,Clear,330,2013-07-31 01:58:00
7:58 PM,69.8,57.6,65,30.11,10.0,NNW,6.9,-,N/A,,Clear,340,2013-07-31 02:58:00
8:58 PM,65.3,56.3,73,30.12,10.0,NW,4.6,-,N/A,,Clear,310,2013-07-31 03:58:00
9:58 PM,62.4,55.9,79,30.13,10.0,NW,4.6,-,N/A,,Clear,320,2013-07-31 04:58:00
10:58 PM,60.8,55.6,83,30.13,10.0,WNW,4.6,-,N/A,,Partly Cloudy,300,2013-07-31 05:58:00
11:58 PM,60.1,55.6,85,30.14,10.0,SSW,3.5,-,N/A,,Clear,200,2013-07-31 06:58:00